Location: Black Swamp Observatory
(41.3920°N, 84.1250°W)
Time: 07:06:03
(UTC-05:00)

Amateur Radio Satellites - All Passes

Search period start: 28 January 2015 06:36
Search period end: 29 January 2015 06:36
Location: Black Swamp Observatory, 41.3920°N, 84.1250°W

Satellite Date Start Highest point End Downlink Frequencies (MHz)
Time Altitude Azimuth
STRAND 1 28 Jan 06:37:33 06:42:39 82° 74° (ENE) 06:47:48 437.568
Cubesat XI-IV 28 Jan 06:55:48 07:01:12 72° 102° (ESE) 07:06:34 437.490
DANDE 28 Jan 07:03:00 07:09:10 21° 301° (WNW) 07:15:07 436.750
CUBESAT XI-V 28 Jan 07:03:56 07:08:14 38° 263° (W) 07:12:33 437.345
RS-15 28 Jan 07:04:26 07:15:05 55° 313° (NW) 07:25:51 29.354- 29.394
CUTE-I 28 Jan 07:16:13 07:21:37 77° 286° (WNW) 07:26:59 437.470
AO-7 28 Jan 07:19:13 07:24:40 19° 309° (NW) 07:29:46 29.400- 29.500
PCSat 28 Jan 07:25:22 07:27:52 13° 324° (NW) 07:30:12 145.827
YUBILEINY 28 Jan 07:53:14 08:01:59 73° 265° (W) 08:10:43 435.215
BRITE-PL 28 Jan 08:10:41 08:14:38 20° 88° (E) 08:18:40 437.365/2234.400
GOMX 1 28 Jan 08:13:36 08:16:06 14° 85° (E) 08:18:52 467.674
STRAND 1 28 Jan 08:20:53 08:22:37 11° 273° (W) 08:24:01 437.568
DOVE 4 28 Jan 08:31:40 08:34:12 14° 86° (E) 08:36:56 437.250
Cubesat XI-IV 28 Jan 08:37:26 08:40:47 16° 298° (WNW) 08:43:56 437.490
HO-68 28 Jan 08:40:33 08:46:41 31° 94° (E) 08:52:57 435.675
VERMONT LUNAR 28 Jan 08:41:34 08:43:26 14° 149° (SSE) 08:45:23 437.305
COMPASS 1 28 Jan 08:41:44 08:43:52 14° 90° (E) 08:46:12 437.405
CANX-2 28 Jan 08:51:10 08:54:50 28° 95° (E) 08:58:31 2200.000
UNISAT 6 28 Jan 08:58:55 09:00:25 12° 62° (ENE) 09:02:10 437.425
CUTE-I 28 Jan 08:59:21 09:00:55 11° 302° (WNW) 09:02:11 437.470
AAUSAT CUBESAT 2 28 Jan 09:08:01 09:11:24 24° 94° (E) 09:14:51 437.432
Oscar 11 28 Jan 09:13:42 09:15:53 14° 89° (E) 09:18:17 145.826/435.025
CUTE 1.7 + AOD 2 28 Jan 09:15:12 09:19:19 48° 99° (E) 09:23:24 437.475
RS-15 28 Jan 09:22:26 09:30:47 23° 344° (NNW) 09:39:08 29.354- 29.394
POPSAT HIP 1 28 Jan 09:29:24 09:31:10 13° 64° (ENE) 09:33:09 437.405
ANTELSAT 28 Jan 09:32:14 09:36:01 25° 68° (ENE) 09:39:54 437.575/2403.000
PHONESAT 2.4 28 Jan 09:32:29 09:35:04 19° 151° (SSE) 09:37:44 2401.200-2431.200
DUCHIFAT 1 28 Jan 09:32:31 09:34:32 14° 64° (ENE) 09:36:44 145.980
TIGRISAT 28 Jan 09:40:26 09:44:27 29° 69° (ENE) 09:48:33 435.000
CUBEBUG 2 28 Jan 09:47:01 09:50:43 24° 92° (E) 09:54:23 437.445
SEEDS 28 Jan 09:47:29 09:51:42 83° 283° (WNW) 09:55:53 437.485
UKube-1 28 Jan 09:47:47 09:50:48 19° 92° (E) 09:53:56 .
BRITE-PL 28 Jan 09:47:59 09:53:37 59° 287° (WNW) 09:59:00 437.365/2234.400
GOMX 1 28 Jan 09:49:30 09:54:59 77° 285° (WNW) 10:00:12 467.674
YUBILEINY 28 Jan 09:53:32 09:57:26 13° 284° (WNW) 10:00:41 435.215
ZACube-1 28 Jan 09:59:54 10:03:22 23° 92° (E) 10:06:51 437.345
CINEMA 3 28 Jan 10:03:07 10:07:59 63° 100° (E) 10:12:36 145.822/145.860
NANOSAT C BR1 28 Jan 10:04:56 10:08:37 29° 70° (ENE) 10:12:23 145.865
DX 1 28 Jan 10:06:32 10:10:26 31° 96° (E) 10:14:22 434.975-435.025
DOVE 4 28 Jan 10:07:24 10:12:39 70° 285° (WNW) 10:17:36 437.250
FUNcube-1 28 Jan 10:11:59 10:15:52 30° 95° (E) 10:19:42 145.935
HUMSAT D 28 Jan 10:12:35 10:15:13 16° 90° (E) 10:17:57 437.325/437.525
BEESAT 2 28 Jan 10:15:50 10:16:53 11° 36° (NE) 10:18:05 435.950
COMPASS 1 28 Jan 10:15:55 10:19:56 47° 287° (WNW) 10:23:55 437.405
VERMONT LUNAR 28 Jan 10:17:43 10:21:05 47° 164° (SSE) 10:24:29 437.305
QB50P2 28 Jan 10:18:11 10:22:12 41° 72° (ENE) 10:26:17 145.880/145.840
AISAT 28 Jan 10:25:58 10:29:14 20° 92° (E) 10:32:36 437.250
CANX-2 28 Jan 10:27:14 10:30:42 24° 291° (WNW) 10:34:04 2200.000
QB50P1 28 Jan 10:27:47 10:31:56 52° 73° (ENE) 10:36:09 145.935-145.965
HO-68 28 Jan 10:27:50 10:34:43 51° 292° (WNW) 10:41:33 435.675
UWE-3 28 Jan 10:29:01 10:33:30 57° 99° (E) 10:37:49 435.000/436.395/437.385
BEESAT 3 28 Jan 10:30:06 10:32:33 15° 40° (NE) 10:35:06 437.485
UNISAT 6 28 Jan 10:31:54 10:36:38 83° 258° (WSW) 10:41:23 437.425
POLYITAN 1 28 Jan 10:41:37 10:45:55 77° 76° (ENE) 10:50:16 437.675
AAUSAT CUBESAT 2 28 Jan 10:43:32 10:47:04 27° 290° (WNW) 10:50:32 437.432
DELFI C3 28 Jan 10:44:47 10:48:48 64° 285° (WNW) 10:52:47 145.870
BUGSAT 1 28 Jan 10:45:40 10:49:42 64° 75° (ENE) 10:53:50 437.445
Oscar 11 28 Jan 10:48:16 10:52:28 50° 287° (WNW) 10:56:37 145.826/435.025
CUTE 1.7 + AOD 2 28 Jan 10:52:23 10:54:54 15° 294° (WNW) 10:57:16 437.475
VELOX 1 28 Jan 10:54:11 10:58:22 38° 98° (E) 11:02:34 145.980
AIST 1 28 Jan 11:02:12 11:04:59 18° 88° (E) 11:07:54
POPSAT HIP 1 28 Jan 11:02:22 11:06:37 63° 259° (W) 11:10:54 437.405
DUCHIFAT 1 28 Jan 11:05:45 11:09:57 58° 260° (W) 11:14:12 145.980
CUBEBUG 1 28 Jan 11:06:34 11:09:56 22° 93° (E) 11:13:25 437.445
ANTELSAT 28 Jan 11:08:21 11:12:42 35° 264° (W) 11:17:00 437.575/2403.000
PHONESAT 2.4 28 Jan 11:09:42 11:13:15 57° 167° (SSE) 11:16:50 2401.200-2431.200
SO-50 28 Jan 11:11:29 11:16:02 78° 121° (ESE) 11:20:46 436.795
TIGRISAT 28 Jan 11:17:01 11:21:10 29° 265° (W) 11:25:16 435.000
UKube-1 28 Jan 11:23:05 11:27:10 39° 289° (WNW) 11:31:13 .
CUBEBUG 2 28 Jan 11:23:22 11:27:30 32° 290° (WNW) 11:31:27 437.445
GOMX 1 28 Jan 11:30:33 11:32:13 11° 301° (WNW) 11:33:35 467.674
50 SAT 28 Jan 11:33:33 11:37:38 78° 285° (WNW) 11:41:38 437.505
ZACube-1 28 Jan 11:35:51 11:39:51 32° 290° (WNW) 11:43:43 437.345
TISAT 1 28 Jan 11:39:33 11:40:24 11° 88° (E) 11:41:31 437.305
RS-15 28 Jan 11:39:45 11:48:20 25° 19° (NNE) 11:57:23 29.354- 29.394
NANOSAT C BR1 28 Jan 11:41:01 11:44:32 24° 266° (W) 11:48:00 145.865
CINEMA 3 28 Jan 11:41:46 11:44:40 15° 297° (WNW) 11:47:19 145.822/145.860
AIST 2 28 Jan 11:42:02 11:45:42 27° 47° (NE) 11:49:22 435.215
DX 1 28 Jan 11:42:58 11:46:35 25° 292° (WNW) 11:50:07 434.975-435.025
HUMSAT D 28 Jan 11:47:15 11:51:17 41° 288° (WNW) 11:55:13 437.325/437.525
FUNcube-1 28 Jan 11:48:28 11:52:08 25° 292° (WNW) 11:55:39 145.935
BEESAT 2 28 Jan 11:51:46 11:55:57 71° 56° (NE) 12:00:04 435.950
QB50P2 28 Jan 11:55:30 11:58:23 17° 269° (W) 12:01:08 145.880/145.840
VERMONT LUNAR 28 Jan 11:55:36 11:59:06 79° 180° (S) 12:02:38 437.305
GONETS M04 28 Jan 11:59:28 12:06:58 32° 68° (ENE) 12:14:38
ESTCUBE 1 28 Jan 12:00:51 12:05:25 89° 102° (ESE) 12:09:57 437.505/2401.250
AISAT 28 Jan 12:01:49 12:06:04 39° 289° (WNW) 12:10:14 437.250
QB50P1 28 Jan 12:06:01 12:08:14 13° 271° (W) 12:10:16 145.935-145.965
UWE-3 28 Jan 12:07:00 12:09:36 15° 296° (WNW) 12:11:58 435.000/436.395/437.385
BEESAT 3 28 Jan 12:07:03 12:11:12 70° 240° (WSW) 12:15:17 437.485
BUGSAT 1 28 Jan 12:25:11 12:25:45 10° 272° (W) 12:26:05 437.445
VELOX 1 28 Jan 12:31:19 12:34:45 21° 293° (WNW) 12:38:05 145.980
SPROUT 28 Jan 12:31:46 12:35:56 44° 98° (E) 12:40:06 437.525
AIST 1 28 Jan 12:38:28 12:42:25 36° 284° (WNW) 12:46:21
CUBEBUG 1 28 Jan 12:42:22 12:46:27 35° 289° (WNW) 12:50:28 437.445
PCSat 28 Jan 12:43:23 12:47:02 18° 42° (NE) 12:50:49 145.827
PHONESAT 2.4 28 Jan 12:48:07 12:51:45 78° 185° (S) 12:55:25 2401.200-2431.200
Oscar 19 28 Jan 12:49:09 12:54:07 48° 71° (ENE) 12:59:08 437.125/150
SO-50 28 Jan 12:54:06 12:57:13 17° 322° (NW) 13:00:18 436.795
ITAMSAT 1 28 Jan 13:03:56 13:08:01 25° 66° (ENE) 13:12:14 435.822/435.867
SWISSCUBE 28 Jan 13:08:55 13:12:06 18° 91° (E) 13:15:28 437.505
TISAT 1 28 Jan 13:12:29 13:16:46 66° 285° (WNW) 13:21:00 437.305
AIST 2 28 Jan 13:20:30 13:24:23 33° 245° (WSW) 13:28:09 435.215
BEESAT 28 Jan 13:24:28 13:28:17 24° 94° (E) 13:32:11 436.000
ITUPSAT 1 28 Jan 13:27:37 13:31:32 25° 94° (E) 13:35:32 437.325
BEESAT 2 28 Jan 13:32:34 13:33:39 11° 251° (WSW) 13:34:30 435.950
VERMONT LUNAR 28 Jan 13:33:43 13:37:07 47° 197° (SSW) 13:40:32 437.305
RS-15 28 Jan 13:52:40 14:03:48 60° 49° (NE) 14:15:30 29.354- 29.394
Gurwin Techsat 1B 28 Jan 13:53:57 13:59:00 47° 71° (ENE) 14:04:07 435.225
GONETS M04 28 Jan 13:55:53 14:04:18 56° 269° (W) 14:12:40
KKS-1 28 Jan 14:03:32 14:04:43 11° 88° (E) 14:06:10 437.445
SPROUT 28 Jan 14:08:47 14:11:45 18° 294° (WNW) 14:14:34 437.525
DANDE 28 Jan 14:20:49 14:24:10 14° 53° (NE) 14:27:27 436.750
PCSat 28 Jan 14:25:43 14:31:11 81° 243° (WSW) 14:36:36 145.827
PHONESAT 2.4 28 Jan 14:26:44 14:30:11 40° 200° (SSW) 14:33:38 2401.200-2431.200
Oscar 19 28 Jan 14:29:52 14:33:48 21° 268° (W) 14:37:34 437.125/150
AO-7 28 Jan 14:32:13 14:39:21 34° 59° (ENE) 14:46:39 29.400- 29.500
ITAMSAT 1 28 Jan 14:42:26 14:47:19 42° 262° (W) 14:52:14 435.822/435.867
SWISSCUBE 28 Jan 14:45:41 14:50:18 47° 288° (WNW) 14:54:52 437.505
HORYU 2 28 Jan 14:48:42 14:53:03 49° 72° (ENE) 14:57:25 437.375
CUSAT 1 28 Jan 14:53:59 14:59:22 28° 64° (ENE) 15:03:44 437.405
JAS-2 28 Jan 14:58:46 15:00:49 13° 61° (ENE) 15:03:06 435.910
BEESAT 28 Jan 15:01:53 15:06:15 36° 290° (WNW) 15:10:35 436.000
ITUPSAT 1 28 Jan 15:05:12 15:09:32 34° 291° (WNW) 15:13:49 437.325
VERMONT LUNAR 28 Jan 15:12:47 15:14:48 14° 211° (SSW) 15:16:45 437.305
AUBIESAT-1 28 Jan 15:16:25 15:17:26 11° 97° (E) 15:18:38 437.475
STARS 28 Jan 15:33:10 15:37:38 71° 102° (ESE) 15:42:03 437.465
Gurwin Techsat 1B 28 Jan 15:35:10 15:39:17 22° 268° (W) 15:43:15 435.225
KKS-1 28 Jan 15:37:28 15:41:57 69° 285° (WNW) 15:46:24 437.445
DANDE 28 Jan 16:02:21 16:09:20 88° 78° (ENE) 16:14:26 436.750
RS-15 28 Jan 16:05:29 16:16:00 43° 250° (WSW) 16:26:42 29.354- 29.394
PHONESAT 2.4 28 Jan 16:07:00 16:08:13 11° 214° (SW) 16:09:20 2401.200-2431.200
M-CUBED/EXP-1 PRIME 28 Jan 16:15:22 16:18:42 83° 111° (ESE) 16:22:06 437.505
AO-7 28 Jan 16:23:33 16:31:48 59° 258° (WSW) 16:40:03 29.400- 29.500
HORYU 2 28 Jan 16:27:13 16:30:03 16° 269° (W) 16:32:43 437.375
O/OREOS (USA 219) 28 Jan 16:35:26 16:39:44 49° 108° (ESE) 16:44:08 437.305
CUSAT 1 28 Jan 16:36:52 16:42:40 38° 272° (W) 16:47:03 437.405
JAS-2 28 Jan 16:39:50 16:45:26 84° 256° (WSW) 16:50:41 435.910
Cubesat XI-IV 28 Jan 16:40:43 16:43:49 16° 62° (ENE) 16:47:07 437.490
AUBIESAT-1 28 Jan 16:49:32 16:52:38 36° 292° (WNW) 16:55:47 437.475
CUTE-I 28 Jan 16:59:50 17:03:54 23° 65° (ENE) 17:08:06 437.470
MOZHAYETS 4 28 Jan 17:10:08 17:14:33 46° 99° (E) 17:18:57
STARS 28 Jan 17:11:43 17:13:36 12° 297° (WNW) 17:15:16 437.465
DANDE 28 Jan 17:48:42 17:51:19 12° 283° (WNW) 17:53:21 436.750
PRISM 28 Jan 17:49:39 17:50:24 11° 89° (E) 17:51:25 437.425
SO-50 28 Jan 18:03:52 18:06:18 14° 35° (NE) 18:08:54 436.795
O/OREOS (USA 219) 28 Jan 18:16:22 18:19:31 18° 307° (NW) 18:22:34 437.305
Cubesat XI-IV 28 Jan 18:18:06 18:23:24 71° 257° (WSW) 18:28:45 437.490
CUTE-I 28 Jan 18:38:36 18:43:43 47° 261° (W) 18:48:51 437.470
MOZHAYETS 4 28 Jan 18:48:20 18:51:29 18° 294° (WNW) 18:54:29
STRAND 1 28 Jan 18:48:32 18:52:52 27° 94° (E) 18:57:17 437.568
YUBILEINY 28 Jan 18:59:27 19:06:12 27° 83° (E) 19:13:15 435.215
CUBESAT XI-V 28 Jan 19:00:14 19:04:49 51° 99° (E) 19:09:24 437.345
HO-68 28 Jan 19:10:08 19:15:35 25° 59° (ENE) 19:21:13 435.675
BRITE-PL 28 Jan 19:21:36 19:25:21 21° 64° (ENE) 19:29:25 437.365/2234.400
GOMX 1 28 Jan 19:21:46 19:24:38 16° 62° (ENE) 19:27:49 467.674
PRISM 28 Jan 19:22:19 19:26:25 63° 286° (WNW) 19:30:31 437.425
COMPASS 1 28 Jan 19:34:55 19:36:06 11° 64° (ENE) 19:37:30 437.405
DOVE 4 28 Jan 19:37:21 19:40:16 16° 62° (ENE) 19:43:26 437.250
SO-50 28 Jan 19:42:52 19:47:48 71° 55° (NE) 19:52:43 436.795
CANX-2 28 Jan 19:44:45 19:48:04 22° 68° (ENE) 19:51:27 2200.000
AAUSAT CUBESAT 2 28 Jan 19:59:57 20:02:48 18° 67° (ENE) 20:05:47 437.432
CUTE 1.7 + AOD 2 28 Jan 20:08:19 20:12:14 36° 72° (ENE) 20:16:11 437.475
Oscar 11 28 Jan 20:09:41 20:11:24 12° 64° (ENE) 20:13:19 145.826/435.025
STRAND 1 28 Jan 20:27:27 20:32:09 36° 291° (WNW) 20:36:48 437.568
CUBESAT XI-V 28 Jan 20:38:46 20:41:55 18° 295° (WNW) 20:44:55 437.345
SEEDS 28 Jan 20:39:34 20:43:48 69° 76° (ENE) 20:48:03 437.485
UKube-1 28 Jan 20:43:32 20:46:18 17° 65° (ENE) 20:49:14 .
CUBEBUG 2 28 Jan 20:45:26 20:49:06 23° 67° (ENE) 20:52:54 437.445
YUBILEINY 28 Jan 20:53:50 21:02:27 64° 282° (WNW) 21:11:06 435.215
HO-68 28 Jan 20:55:40 21:02:47 68° 257° (WSW) 21:09:56 435.675
ZACube-1 28 Jan 20:56:18 20:59:38 21° 67° (ENE) 21:03:06 437.345
GOMX 1 28 Jan 20:57:06 21:02:08 73° 260° (W) 21:07:30 467.674
BRITE-PL 28 Jan 20:58:35 21:03:27 51° 262° (W) 21:08:43 437.365/2234.400
DX 1 28 Jan 21:02:31 21:06:12 28° 69° (ENE) 21:09:58 434.975-435.025
CINEMA 3 28 Jan 21:04:20 21:09:09 59° 74° (ENE) 21:14:08 145.822/145.860
HUMSAT D 28 Jan 21:05:44 21:07:49 14° 65° (ENE) 21:10:07 437.325/437.525
COMPASS 1 28 Jan 21:07:07 21:11:21 69° 259° (W) 21:15:34 437.405
FUNcube-1 28 Jan 21:07:58 21:11:46 26° 68° (ENE) 21:15:37 145.935
DOVE 4 28 Jan 21:12:25 21:17:26 71° 260° (W) 21:22:43 437.250
CANX-2 28 Jan 21:19:58 21:23:52 32° 264° (W) 21:27:44 2200.000
ISS 28 Jan 21:24:04 21:25:27 12° 131° (SE) 21:26:58 145.825
AISAT 28 Jan 21:24:40 21:27:44 19° 66° (ENE) 21:30:58 437.250
SO-50 28 Jan 21:25:05 21:27:52 15° 251° (WSW) 21:30:27 436.795
UWE-3 28 Jan 21:25:54 21:30:24 48° 73° (ENE) 21:34:57 435.000/436.395/437.385
DELFI C3 28 Jan 21:32:49 21:36:54 78° 76° (ENE) 21:40:59 145.870
AAUSAT CUBESAT 2 28 Jan 21:34:17 21:38:14 38° 263° (W) 21:42:11 437.432
Oscar 11 28 Jan 21:42:47 21:47:07 66° 259° (W) 21:51:27 145.826/435.025
CUTE 1.7 + AOD 2 28 Jan 21:45:08 21:48:20 20° 268° (W) 21:51:25 437.475
VELOX 1 28 Jan 21:52:13 21:56:13 35° 70° (ENE) 22:00:17 145.980
CUBEBUG 1 28 Jan 22:03:34 22:06:34 19° 66° (ENE) 22:09:42 437.445
UKube-1 28 Jan 22:18:01 22:22:11 44° 261° (W) 22:26:21 .
50 SAT 28 Jan 22:20:46 22:24:52 64° 75° (ENE) 22:28:59 437.505
CUBEBUG 2 28 Jan 22:21:09 22:25:36 39° 263° (W) 22:30:05 437.445
UNISAT 6 28 Jan 22:25:12 22:28:27 20° 92° (E) 22:31:46 437.425
POLYITAN 1 28 Jan 22:29:16 22:31:09 13° 89° (E) 22:33:16 437.675
ZACube-1 28 Jan 22:31:23 22:35:45 42° 262° (W) 22:40:09 437.345
DX 1 28 Jan 22:38:45 22:42:26 26° 265° (W) 22:46:06 434.975-435.025
HUMSAT D 28 Jan 22:38:53 22:43:11 59° 260° (W) 22:47:31 437.325/437.525
CINEMA 3 28 Jan 22:43:42 22:46:50 16° 272° (W) 22:49:49 145.822/145.860
FUNcube-1 28 Jan 22:43:53 22:48:01 31° 265° (W) 22:52:07 145.935
AIST 1 28 Jan 22:45:08 22:49:24 52° 79° (E) 22:53:40
POPSAT HIP 1 28 Jan 22:48:32 22:51:47 21° 93° (E) 22:55:07 437.405
DUCHIFAT 1 28 Jan 22:51:28 22:54:49 22° 93° (E) 22:58:14 145.980
YUBILEINY 28 Jan 22:58:01 23:01:35 12° 307° (NW) 23:04:31 435.215
ISS 28 Jan 22:58:19 23:01:36 75° 327° (NNW) 23:04:54 145.825
AISAT 28 Jan 22:59:53 23:04:06 42° 262° (W) 23:08:22 437.250
ANTELSAT 28 Jan 23:00:23 23:04:43 48° 99° (E) 23:08:57 437.575/2403.000
ESTCUBE 1 28 Jan 23:00:33 23:05:02 83° 76° (ENE) 23:09:33 437.505/2401.250
UWE-3 28 Jan 23:04:03 23:07:16 18° 270° (W) 23:10:19 435.000/436.395/437.385
TIGRISAT 28 Jan 23:08:26 23:12:51 58° 100° (E) 23:17:09 435.000
NANOSAT C BR1 28 Jan 23:25:18 23:29:32 54° 100° (E) 23:33:45 145.865
SPROUT 28 Jan 23:26:14 23:30:07 34° 71° (ENE) 23:34:04 437.525
VELOX 1 28 Jan 23:29:27 23:32:55 22° 267° (W) 23:36:19 145.980
CUBEBUG 1 28 Jan 23:38:36 23:42:41 40° 262° (W) 23:46:50 437.445
QB50P2 28 Jan 23:39:14 23:43:35 80° 102° (ESE) 23:47:52 145.880/145.840
QB50P1 28 Jan 23:48:46 23:53:07 82° 284° (WNW) 23:57:24 145.935-145.965
50 SAT 28 Jan 23:59:45 00:00:30 10° 272° (W) 00:01:00 437.505
UNISAT 6 29 Jan 00:01:18 00:05:26 36° 289° (WNW) 00:09:26 437.425
POLYITAN 1 29 Jan 00:03:17 00:07:33 55° 287° (WNW) 00:11:45 437.675
BUGSAT 1 29 Jan 00:03:20 00:07:37 73° 285° (WNW) 00:11:54 437.445
TISAT 1 29 Jan 00:04:47 00:09:01 88° 248° (WSW) 00:13:20 437.305
SWISSCUBE 29 Jan 00:15:51 00:19:25 22° 66° (ENE) 00:23:06 437.505
POPSAT HIP 1 29 Jan 00:23:53 00:27:48 34° 290° (WNW) 00:31:40 437.405
AIST 1 29 Jan 00:24:33 00:26:39 13° 274° (W) 00:28:34
DUCHIFAT 1 29 Jan 00:26:54 00:30:46 32° 290° (WNW) 00:34:32 145.980
BEESAT 29 Jan 00:31:14 00:35:15 28° 68° (ENE) 00:39:22 436.000
ITUPSAT 1 29 Jan 00:34:43 00:38:48 30° 68° (ENE) 00:42:59 437.325
ISS 29 Jan 00:36:07 00:38:33 19° 344° (NNW) 00:40:59 145.825
ANTELSAT 29 Jan 00:38:18 00:41:10 17° 295° (WNW) 00:43:51 437.575/2403.000
TIGRISAT 29 Jan 00:46:44 00:49:10 14° 296° (WNW) 00:51:23 435.000
GONETS M04 29 Jan 01:00:51 01:08:31 37° 87° (E) 01:16:19
Oscar 19 29 Jan 01:01:52 01:05:01 17° 90° (E) 01:08:22 437.125/150
KKS-1 29 Jan 01:02:27 01:03:55 12° 62° (ENE) 01:05:37 437.445
NANOSAT C BR1 29 Jan 01:02:35 01:05:01 15° 295° (WNW) 01:07:17 145.865
SPROUT 29 Jan 01:03:02 01:06:21 21° 268° (W) 01:09:35 437.525
O/OREOS (USA 219) 29 Jan 01:07:50 01:09:35 12° 49° (NE) 01:11:31 437.305
QB50P2 29 Jan 01:18:12 01:18:56 10° 298° (WNW) 01:19:25 145.880/145.840
M-CUBED/EXP-1 PRIME 29 Jan 01:33:16 01:33:55 10° 61° (ENE) 01:34:46 437.505
BEESAT 2 29 Jan 01:48:48 01:50:43 13° 110° (ESE) 01:52:51 435.950
SWISSCUBE 29 Jan 01:52:36 01:57:05 40° 262° (W) 02:01:34 437.505
BEESAT 3 29 Jan 02:02:05 02:05:09 21° 113° (ESE) 02:08:22 437.485
AUBIESAT-1 29 Jan 02:04:25 02:07:21 21° 65° (ENE) 02:10:13 437.475
BEESAT 29 Jan 02:08:50 02:13:04 30° 265° (W) 02:17:15 436.000
Gurwin Techsat 1B 29 Jan 02:10:58 02:14:34 19° 90° (E) 02:18:20 435.225
ITUPSAT 1 29 Jan 02:12:34 02:16:43 29° 265° (W) 02:20:49 437.325
ISS 29 Jan 02:14:08 02:16:01 14° 5° (N) 02:17:55 145.825
STARS 29 Jan 02:30:10 02:34:34 63° 74° (ENE) 02:38:59 437.465
KKS-1 29 Jan 02:35:33 02:40:02 76° 258° (WSW) 02:44:33 437.445
Oscar 19 29 Jan 02:39:47 02:44:51 58° 287° (WNW) 02:49:52 437.125/150
O/OREOS (USA 219) 29 Jan 02:45:06 02:49:44 84° 248° (WSW) 02:54:20 437.305
ITAMSAT 1 29 Jan 02:54:46 03:00:00 69° 102° (ESE) 03:05:13 435.822/435.867
GONETS M04 29 Jan 02:56:44 03:05:11 49° 286° (WNW) 03:13:33
M-CUBED/EXP-1 PRIME 29 Jan 03:04:31 03:08:36 68° 253° (WSW) 03:12:21 437.505
AIST 2 29 Jan 03:18:15 03:22:21 50° 118° (ESE) 03:26:32 435.215
BEESAT 2 29 Jan 03:24:27 03:28:31 58° 305° (NW) 03:32:40 435.950
PCSat 29 Jan 03:27:53 03:29:49 12° 104° (ESE) 03:32:06 145.827
DANDE 29 Jan 03:30:03 03:36:00 24° 83° (E) 03:42:32 436.750
AUBIESAT-1 29 Jan 03:38:37 03:42:12 29° 257° (WSW) 03:45:31 437.475
BEESAT 3 29 Jan 03:39:16 03:43:07 37° 309° (NW) 03:47:00 437.485
Gurwin Techsat 1B 29 Jan 03:49:46 03:54:58 55° 288° (WNW) 04:00:08 435.225
ISS 29 Jan 03:50:22 03:53:19 29° 24° (NNE) 03:56:18 145.825
JAS-2 29 Jan 03:50:31 03:51:50 11° 87° (E) 03:53:39 435.910
CUSAT 1 29 Jan 03:59:09 04:06:38 43° 90° (E) 04:14:27 437.405
STARS 29 Jan 04:09:38 04:11:33 12° 272° (W) 04:13:14 437.465
MOZHAYETS 4 29 Jan 04:12:11 04:16:32 44° 72° (ENE) 04:20:55
HORYU 2 29 Jan 04:16:32 04:21:01 81° 284° (WNW) 04:25:26 437.375
RS-15 29 Jan 04:17:59 04:27:07 34° 107° (ESE) 04:36:35 29.354- 29.394
AO-7 29 Jan 04:24:58 04:32:58 49° 100° (E) 04:40:57 29.400- 29.500
ITAMSAT 1 29 Jan 04:35:46 04:39:00 16° 298° (WNW) 04:42:03 435.822/435.867
AIST 2 29 Jan 04:58:03 05:01:17 20° 317° (NW) 05:04:27 435.215
PCSat 29 Jan 05:07:10 05:12:36 87° 303° (WNW) 05:18:04 145.827
YUBILEINY 29 Jan 05:09:56 05:13:23 13° 54° (NE) 05:17:27 435.215
DANDE 29 Jan 05:10:26 05:18:40 82° 281° (W) 05:27:24 436.750
ISS 29 Jan 05:26:47 05:29:55 40° 222° (SW) 05:33:01 145.825
JAS-2 29 Jan 05:32:02 05:37:43 84° 103° (ESE) 05:44:08 435.910
CUSAT 1 29 Jan 05:41:45 05:49:39 47° 288° (WNW) 05:57:40 437.405
MOZHAYETS 4 29 Jan 05:50:51 05:54:03 18° 269° (W) 05:57:07
CUBESAT XI-V 29 Jan 06:03:47 06:08:13 49° 73° (ENE) 06:12:41 437.345
STRAND 1 29 Jan 06:04:27 06:09:09 40° 70° (ENE) 06:13:55 437.568
PRISM 29 Jan 06:12:46 06:16:53 85° 257° (WSW) 06:21:01 437.425
AO-7 29 Jan 06:18:03 06:25:40 40° 299° (WNW) 06:33:07 29.400- 29.500
